Simultaneous Nadir Overpasses (SNOs) Predictions

Prediction of SNOs between NPP and PACE Satellite Orbit:

Table of predicted SNOs for the next 14.0 days since TLE Epoch: 8/24/2024
Index Date (NPP) Time (NPP) Lat,Lon (NPP) SZA (NPP ) Date (PACE) Time (PACE) Lat,Lon (PACE) SZA (PACE ) Distance(km) Time Diff (sec)
1 08/26/2024 02:54:29 79.89, 98.67 71.82 08/26/2024 02:54:42 79.90, 98.61 71.82 1.26 13
2 08/28/2024 06:30:12 -79.99,-136.23 107.26 08/28/2024 06:31:13 -79.99,-136.28 107.29 0.80 61
3 08/28/2024 07:20:52 79.84, 32.56 72.48 08/28/2024 07:20:18 79.84, 32.66 72.47 2.14 34
4 08/30/2024 10:56:33 -79.89, 158.21 106.70 08/30/2024 10:56:47 -79.90, 158.07 106.69 3.08 14
5 09/01/2024 14:32:17 80.02, -77.06 74.31 09/01/2024 14:33:17 80.02, -76.99 74.27 1.45 60
6 09/01/2024 15:22:56 -79.85, 92.01 106.01 09/01/2024 15:22:21 -79.84, 92.10 106.01 1.75 35
7 09/03/2024 18:58:38 79.93,-142.73 74.91 09/03/2024 18:58:49 79.93,-142.71 74.91 0.54 11
8 09/05/2024 22:34:19 -79.98, -17.18 104.22 09/05/2024 22:35:15 -79.99, -17.28 104.23 2.18 56



Historial Predications of SNOs between NPP and PACE
